| time (UTC) | temp F | wind direction | speed knots | gust knots | rain 1hr in | rain 24hr in | rain mn in | humidity % | barometer mb |
| 20260505071542 | 57 | 10 | 1.7 | 1.7 | 0.00 | 0.00 | 0.00 | 51 | 1009.0 |
| 20260505071040 | 57 | 66 | 1.7 | 2.6 | 0.00 | 0.00 | 0.00 | 50 | 1009.2 |
| 20260505070537 | 57 | 65 | 2.6 | 5.2 | 0.00 | 0.00 | 0.00 | 49 | 1009.2 |
| 20260505070033 | 58 | 30 | 0.9 | 1.7 | 0.00 | 0.00 | 0.00 | 47 | 1009.2 |
| 20260505065529 | 58 | 8 | 3.5 | 5.2 | 0.00 | 0.00 | 0.00 | 47 | 1009.0 |
| 20260505065026 | 58 | 17 | 0.9 | 2.6 | 0.00 | 0.00 | 0.00 | 47 | 1009.3 |
| 20260505064523 | 58 | 20 | 0.9 | 0.9 | 0.00 | 0.00 | 0.00 | 47 | 1009.2 |
| 20260505064021 | 59 | 351 | 1.7 | 1.7 | 0.00 | 0.00 | 0.00 | 46 | 1008.9 |
| 20260505063518 | 59 | 340 | 0.9 | 0.9 | 0.00 | 0.00 | 0.00 | 47 | 1008.8 |
| 20260505063014 | 59 | 20 | 1.7 | 1.7 | 0.00 | 0.00 | 0.00 | 47 | 1008.3 |
| 20260505062511 | 59 | 24 | 1.7 | 1.7 | 0.00 | 0.00 | 0.00 | 46 | 1008.0 |
| 20260505062008 | 59 | 8 | 1.7 | 2.6 | 0.00 | 0.00 | 0.00 | 48 | 1007.4 |
| 20260505061506 | 60 | 0 | 1.7 | 2.6 | 0.00 | 0.00 | 0.00 | 47 | 1007.2 |
| 20260505061003 | 60 | 71 | 0.9 | 0.9 | 0.00 | 0.00 | 0.00 | 47 | 1007.0 |
| 20260505060501 | 60 | 47 | 0.0 | 0.9 | 0.00 | 0.00 | 0.00 | 46 | 1006.9 |
| 20260505055956 | 61 | 16 | 2.6 | 2.6 | 0.00 | 0.00 | 0.00 | 45 | 1006.9 |
| 20260505055452 | 61 | 47 | 2.6 | 2.6 | 0.00 | 0.00 | 0.00 | 44 | 1007.0 |
| 20260505054949 | 62 | 17 | 3.5 | 5.2 | 0.00 | 0.00 | 0.00 | 44 | 1007.0 |
| 20260505054447 | 62 | 89 | 1.7 | 1.7 | 0.00 | 0.00 | 0.00 | 44 | 1006.8 |
| 20260505053945 | 62 | 39 | 2.6 | 2.6 | 0.00 | 0.00 | 0.00 | 43 | 1006.5 |
| 20260505053442 | 63 | 355 | 3.5 | 5.2 | 0.00 | 0.00 | 0.00 | 43 | 1006.6 |
| 20260505052938 | 64 | 31 | 2.6 | 2.6 | 0.00 | 0.00 | 0.00 | 44 | 1006.4 |
| 20260505052435 | 64 | 26 | 2.6 | 2.6 | 0.00 | 0.00 | 0.00 | 44 | 1006.5 |
| 20260505051932 | 65 | 70 | 1.7 | 2.6 | 0.00 | 0.00 | 0.00 | 43 | 1006.7 |
| 20260505051429 | 65 | 43 | 4.3 | 7.0 | 0.00 | 0.00 | 0.00 | 42 | 1006.4 |
| 20260505050928 | 65 | 29 | 4.3 | 7.0 | 0.00 | 0.00 | 0.00 | 44 | 1006.3 |
| 20260505050426 | 66 | 27 | 2.6 | 2.6 | 0.00 | 0.00 | 0.00 | 43 | 1006.0 |
| 20260505041353 | 68 | 343 | 0.9 | 1.7 | 0.00 | 0.00 | 0.00 | 47 | 1005.2 |
| 20260505040850 | 68 | 41 | 0.9 | 0.9 | 0.00 | 0.00 | 0.00 | 46 | 1005.1 |
| 20260505040348 | 68 | 16 | 0.9 | 0.9 | 0.00 | 0.00 | 0.00 | 46 | 1005.5 |
| 20260505035844 | 69 | 26 | 1.7 | 1.7 | 0.00 | 0.00 | 0.00 | 46 | 1005.2 |
| 20260505035340 | 69 | 39 | 0.9 | 0.9 | 0.00 | 0.00 | 0.00 | 46 | 1005.2 |
| 20260505034838 | 69 | 32 | 0.9 | 0.9 | 0.00 | 0.00 | 0.00 | 46 | 1005.2 |
| 20260505034334 | 69 | 4 | 0.9 | 0.9 | 0.00 | 0.00 | 0.00 | 47 | 1005.0 |
| 20260505033831 | 70 | 10 | 2.6 | 4.3 | 0.00 | 0.00 | 0.00 | 47 | 1005.1 |
| 20260505033328 | 70 | 10 | 0.9 | 1.7 | 0.00 | 0.00 | 0.00 | 46 | 1005.0 |
| 20260505032826 | 70 | 29 | 1.7 | 1.7 | 0.00 | 0.00 | 0.00 | 46 | 1004.6 |
| 20260505032322 | 70 | 62 | 0.9 | 1.7 | 0.00 | 0.00 | 0.00 | 47 | 1004.4 |
| 20260505031820 | 70 | 18 | 1.7 | 1.7 | 0.00 | 0.00 | 0.00 | 51 | 1004.3 |
| 20260505031316 | 70 | 66 | 0.9 | 0.9 | 0.00 | 0.00 | 0.00 | 57 | 1004.6 |
| 20260505030813 | 71 | 247 | 0.0 | 0.0 | 0.00 | 0.00 | 0.00 | 58 | 1004.2 |
| 20260505030310 | 71 | 0 | 0.0 | 0.9 | 0.00 | 0.00 | 0.00 | 54 | 1004.1 |
| 20260505025805 | 70 | 27 | 2.6 | 2.6 | 0.00 | 0.00 | 0.00 | 55 | 1004.1 |
| 20260505025304 | 69 | 322 | 0.0 | 0.9 | 0.00 | 0.00 | 0.00 | 64 | 1003.9 |
| 20260505024801 | 69 | 231 | 0.0 | 0.0 | 0.00 | 0.00 | 0.00 | 65 | 1003.1 |
| 20260505024258 | 70 | 231 | 0.0 | 0.0 | 0.00 | 0.00 | 0.00 | 63 | 1003.1 |
| 20260505023755 | 70 | 198 | 0.0 | 0.0 | 0.00 | 0.00 | 0.00 | 63 | 1003.4 |
| 20260505023252 | 70 | 227 | 0.0 | 0.0 | 0.00 | 0.00 | 0.00 | 65 | 1003.1 |
| 20260505022749 | 69 | 227 | 0.9 | 0.9 | 0.00 | 0.00 | 0.00 | 65 | 1003.1 |
| 20260505022246 | 68 | 232 | 0.0 | 0.0 | 0.00 | 0.00 | 0.00 | 69 | 1003.1 |
| 20260505021743 | 68 | 233 | 0.0 | 0.0 | 0.00 | 0.00 | 0.00 | 70 | 1003.0 |
| 20260505021240 | 68 | 233 | 0.0 | 0.0 | 0.00 | 0.00 | 0.00 | 70 | 1003.0 |
| 20260505020736 | 69 | 233 | 0.0 | 0.0 | 0.00 | 0.00 | 0.00 | 69 | 1002.9 |
| 20260505020231 | 69 | 233 | 0.0 | 0.0 | 0.00 | 0.00 | 0.00 | 69 | 1002.9 |
| 20260505015729 | 69 | 233 | 0.0 | 0.0 | 0.00 | 0.00 | 0.00 | 68 | 1002.8 |
| 20260505015226 | 69 | 234 | 0.0 | 0.0 | 0.00 | 0.00 | 0.00 | 69 | 1002.7 |
| 20260505014723 | 69 | 236 | 0.0 | 0.0 | 0.00 | 0.00 | 0.00 | 69 | 1002.5 |
| 20260505014220 | 69 | 239 | 0.0 | 0.0 | 0.00 | 0.00 | 0.00 | 69 | 1002.6 |
| 20260505013717 | 69 | 246 | 0.0 | 0.0 | 0.00 | 0.00 | 0.00 | 68 | 1002.3 |
| 20260505013214 | 69 | 246 | 0.0 | 0.0 | 0.00 | 0.00 | 0.00 | 69 | 1002.3 |
| 20260505012712 | 70 | 246 | 0.0 | 0.0 | 0.00 | 0.00 | 0.00 | 67 | 1002.5 |
| 20260505012209 | 70 | 249 | 0.0 | 0.0 | 0.00 | 0.00 | 0.00 | 67 | 1002.3 |
| 20260505011704 | 70 | 251 | 0.0 | 0.0 | 0.00 | 0.00 | 0.00 | 67 | 1002.4 |
| 20260505011202 | 71 | 257 | 0.0 | 0.0 | 0.00 | 0.00 | 0.00 | 67 | 1002.2 |
| 20260505010657 | 71 | 258 | 0.0 | 0.0 | 0.00 | 0.00 | 0.00 | 66 | 1002.2 |
| 20260505010154 | 72 | 270 | 0.0 | 0.0 | 0.00 | 0.00 | 0.00 | 64 | 1002.1 |
| 20260505005650 | 73 | 271 | 0.0 | 0.0 | 0.00 | 0.00 | 0.00 | 63 | 1002.1 |
| 20260505005147 | 74 | 265 | 0.0 | 0.0 | 0.00 | 0.00 | 0.00 | 61 | 1002.3 |
| 20260505004644 | 74 | 283 | 0.0 | 0.0 | 0.00 | 0.00 | 0.00 | 60 | 1002.3 |
| 20260505004141 | 75 | 310 | 0.0 | 0.0 | 0.00 | 0.00 | 0.00 | 60 | 1002.0 |
| 20260505003638 | 75 | 311 | 0.0 | 0.0 | 0.00 | 0.00 | 0.00 | 58 | 1002.0 |
| 20260505003136 | 76 | 284 | 0.0 | 0.0 | 0.00 | 0.00 | 0.00 | 57 | 1002.0 |
| 20260505002631 | 76 | 265 | 0.9 | 0.9 | 0.00 | 0.00 | 0.00 | 56 | 1002.0 |
| 20260505002130 | 76 | 253 | 0.0 | 0.0 | 0.00 | 0.00 | 0.00 | 56 | 1002.2 |
| 20260505001627 | 77 | 280 | 0.0 | 0.0 | 0.00 | 0.00 | 0.00 | 55 | 1002.0 |
| 20260505001124 | 77 | 274 | 0.0 | 0.0 | 0.00 | 0.00 | 0.00 | 54 | 1002.0 |
| 20260505000621 | 77 | 292 | 0.9 | 0.9 | 0.00 | 0.00 | 0.00 | 53 | 1002.1 |
| 20260505000119 | 78 | 284 | 0.0 | 0.0 | 0.00 | 0.00 | 0.00 | 52 | 1002.0 |
| 20260504235615 | 78 | 260 | 1.7 | 1.7 | 0.00 | 0.00 | 0.00 | 51 | 1002.0 |
| 20260504235112 | 78 | 221 | 0.9 | 0.9 | 0.00 | 0.00 | 0.00 | 50 | 1002.2 |
| 20260504234609 | 79 | 232 | 0.0 | 0.0 | 0.00 | 0.00 | 0.00 | 50 | 1002.2 |
| 20260504234106 | 79 | 234 | 0.0 | 0.0 | 0.00 | 0.00 | 0.00 | 48 | 1002.0 |
| 20260504233601 | 79 | 206 | 0.0 | 0.0 | 0.00 | 0.00 | 0.00 | 50 | 1001.9 |
| 20260504233058 | 79 | 214 | 0.0 | 0.9 | 0.00 | 0.00 | 0.00 | 48 | 1002.0 |
| 20260504232555 | 79 | 226 | 0.9 | 2.6 | 0.00 | 0.00 | 0.00 | 49 | 1002.0 |
| 20260504232053 | 79 | 351 | 0.9 | 1.7 | 0.00 | 0.00 | 0.00 | 47 | 1002.0 |
| 20260504231549 | 80 | 304 | 0.9 | 0.9 | 0.00 | 0.00 | 0.00 | 48 | 1002.0 |
| 20260504231045 | 80 | 229 | 0.0 | 0.9 | 0.00 | 0.00 | 0.00 | 48 | 1002.2 |
| 20260504230541 | 80 | 267 | 0.0 | 0.9 | 0.00 | 0.00 | 0.00 | 51 | 1001.9 |
| 20260504230041 | 80 | 196 | 0.0 | 0.0 | 0.00 | 0.00 | 0.00 | 50 | 1001.9 |
| 20260504225537 | 81 | 212 | 0.0 | 0.0 | 0.00 | 0.00 | 0.00 | 48 | 1001.7 |
| 20260504225035 | 81 | 218 | 0.9 | 1.7 | 0.00 | 0.00 | 0.00 | 48 | 1001.9 |
| 20260504224531 | 81 | 208 | 1.7 | 1.7 | 0.00 | 0.00 | 0.00 | 48 | 1001.9 |
| 20260504224028 | 81 | 269 | 2.6 | 4.3 | 0.00 | 0.00 | 0.00 | 47 | 1001.9 |
| 20260504223525 | 81 | 348 | 1.7 | 1.7 | 0.00 | 0.00 | 0.00 | 46 | 1002.0 |
| 20260504223021 | 81 | 232 | 0.0 | 0.0 | 0.00 | 0.00 | 0.00 | 47 | 1002.0 |
| 20260504222518 | 82 | 148 | 1.7 | 2.6 | 0.00 | 0.00 | 0.00 | 46 | 1001.7 |
| 20260504222015 | 82 | 280 | 0.9 | 0.9 | 0.00 | 0.00 | 0.00 | 47 | 1001.7 |
| 20260504221513 | 83 | 238 | 0.0 | 0.0 | 0.00 | 0.00 | 0.00 | 44 | 1002.0 |
| 20260504221009 | 83 | 266 | 2.6 | 2.6 | 0.00 | 0.00 | 0.00 | 41 | 1001.7 |
| 20260504220506 | 84 | 235 | 1.7 | 2.6 | 0.00 | 0.00 | 0.00 | 42 | 1001.9 |
| 20260504220003 | 84 | 326 | 2.6 | 4.3 | 0.00 | 0.00 | 0.00 | 41 | 1002.0 |
| 20260504215459 | 83 | 227 | 0.0 | 0.9 | 0.00 | 0.00 | 0.00 | 42 | 1002.0 |
| 20260504214956 | 83 | 268 | 1.7 | 1.7 | 0.00 | 0.00 | 0.00 | 43 | 1002.0 |
| 20260504214452 | 82 | 266 | 0.0 | 0.0 | 0.00 | 0.00 | 0.00 | 47 | 1002.1 |
| 20260504213949 | 82 | 216 | 0.0 | 0.0 | 0.00 | 0.00 | 0.00 | 44 | 1002.1 |
| 20260504213445 | 82 | 165 | 0.9 | 1.7 | 0.00 | 0.00 | 0.00 | 43 | 1002.3 |
| 20260504212943 | 82 | 316 | 1.7 | 2.6 | 0.00 | 0.00 | 0.00 | 41 | 1002.3 |
| 20260504212438 | 83 | 188 | 2.6 | 2.6 | 0.00 | 0.00 | 0.00 | 42 | 1002.4 |
| 20260504211936 | 83 | 175 | 0.0 | 0.9 | 0.00 | 0.00 | 0.00 | 42 | 1002.4 |
| 20260504211432 | 83 | 212 | 1.7 | 2.6 | 0.00 | 0.00 | 0.00 | 41 | 1002.5 |
| 20260504210930 | 82 | 208 | 2.6 | 5.2 | 0.00 | 0.00 | 0.00 | 42 | 1002.3 |
| 20260504210427 | 83 | 227 | 0.9 | 1.7 | 0.00 | 0.00 | 0.00 | 42 | 1002.4 |
| 20260504205924 | 83 | 231 | 1.7 | 1.7 | 0.00 | 0.00 | 0.00 | 41 | 1002.3 |
| 20260504205421 | 84 | 276 | 1.7 | 2.6 | 0.00 | 0.00 | 0.00 | 39 | 1002.4 |
| 20260504204919 | 84 | 290 | 0.9 | 1.7 | 0.00 | 0.00 | 0.00 | 40 | 1002.4 |
| 20260504204417 | 85 | 273 | 0.9 | 1.7 | 0.00 | 0.00 | 0.00 | 40 | 1002.3 |
| 20260504203917 | 85 | 159 | 0.0 | 0.0 | 0.00 | 0.00 | 0.00 | 43 | 1002.3 |
| 20260504203414 | 85 | 239 | 0.9 | 0.9 | 0.00 | 0.00 | 0.00 | 41 | 1002.7 |
| 20260504202909 | 85 | 259 | 0.0 | 0.0 | 0.00 | 0.00 | 0.00 | 39 | 1002.6 |
| 20260504202406 | 85 | 168 | 1.7 | 1.7 | 0.00 | 0.00 | 0.00 | 39 | 1002.6 |
| 20260504201903 | 85 | 276 | 2.6 | 2.6 | 0.00 | 0.00 | 0.00 | 37 | 1002.8 |
| 20260504201401 | 85 | 178 | 3.5 | 5.2 | 0.00 | 0.00 | 0.00 | 40 | 1002.8 |
| 20260504200857 | 85 | 195 | 2.6 | 2.6 | 0.00 | 0.00 | 0.00 | 39 | 1002.8 |
| 20260504200354 | 84 | 242 | 0.9 | 1.7 | 0.00 | 0.00 | 0.00 | 38 | 1002.8 |
| 20260504195851 | 85 | 246 | 0.0 | 0.9 | 0.00 | 0.00 | 0.00 | 41 | 1002.8 |
| 20260504195346 | 85 | 356 | 0.0 | 0.0 | 0.00 | 0.00 | 0.00 | 40 | 1002.8 |
| 20260504194843 | 85 | 250 | 1.7 | 2.6 | 0.00 | 0.00 | 0.00 | 43 | 1002.9 |
| 20260504194339 | 84 | 238 | 0.9 | 0.9 | 0.00 | 0.00 | 0.00 | 40 | 1002.7 |
| 20260504193835 | 84 | 241 | 1.7 | 1.7 | 0.00 | 0.00 | 0.00 | 40 | 1003.0 |
| 20260504193333 | 84 | 309 | 1.7 | 1.7 | 0.00 | 0.00 | 0.00 | 39 | 1002.8 |
| 20260504192832 | 84 | 268 | 0.0 | 0.9 | 0.00 | 0.00 | 0.00 | 40 | 1002.9 |
| 20260504192329 | 83 | 281 | 0.9 | 0.9 | 0.00 | 0.00 | 0.00 | 46 | 1002.9 |
| 20260504191827 | 83 | 105 | 2.6 | 4.3 | 0.00 | 0.00 | 0.00 | 43 | 1002.8 |
| 20260504191325 | 82 | 244 | 1.7 | 1.7 | 0.00 | 0.00 | 0.00 | 42 | 1002.9 |
| 20260504190820 | 82 | 282 | 3.5 | 5.2 | 0.00 | 0.00 | 0.00 | 43 | 1002.9 |
| 20260504190316 | 83 | 187 | 0.9 | 1.7 | 0.00 | 0.00 | 0.00 | 45 | 1002.9 |
| 20260504185813 | 83 | 186 | 0.9 | 0.9 | 0.00 | 0.00 | 0.00 | 45 | 1003.0 |
| 20260504185310 | 82 | 221 | 0.0 | 0.0 | 0.00 | 0.00 | 0.00 | 43 | 1003.0 |
| 20260504184806 | 83 | 172 | 1.7 | 2.6 | 0.00 | 0.00 | 0.00 | 44 | 1002.8 |
| 20260504184302 | 82 | 243 | 1.7 | 1.7 | 0.00 | 0.00 | 0.00 | 43 | 1003.2 |
| 20260504183758 | 83 | 341 | 2.6 | 5.2 | 0.00 | 0.00 | 0.00 | 44 | 1003.1 |
| 20260504183255 | 83 | 270 | 1.7 | 2.6 | 0.00 | 0.00 | 0.00 | 45 | 1003.0 |
| 20260504182753 | 81 | 316 | 0.9 | 1.7 | 0.00 | 0.00 | 0.00 | 48 | 1003.1 |
| 20260504182250 | 82 | 310 | 0.9 | 0.9 | 0.00 | 0.00 | 0.00 | 46 | 1003.1 |
| 20260504181747 | 80 | 237 | 2.6 | 4.3 | 0.00 | 0.00 | 0.00 | 46 | 1003.1 |
| 20260504181244 | 80 | 311 | 2.6 | 2.6 | 0.00 | 0.00 | 0.00 | 47 | 1003.1 |
| 20260504180744 | 81 | 242 | 1.7 | 2.6 | 0.00 | 0.00 | 0.00 | 48 | 1003.1 |
| 20260504180242 | 81 | 224 | 2.6 | 4.3 | 0.00 | 0.00 | 0.00 | 46 | 1003.3 |
| 20260504175739 | 81 | 256 | 1.7 | 2.6 | 0.00 | 0.00 | 0.00 | 47 | 1003.4 |
| 20260504175235 | 79 | 230 | 2.6 | 4.3 | 0.00 | 0.00 | 0.00 | 45 | 1003.5 |
| 20260504174734 | 79 | 125 | 1.7 | 1.7 | 0.00 | 0.00 | 0.00 | 46 | 1003.2 |
| 20260504174231 | 80 | 231 | 0.9 | 0.9 | 0.00 | 0.00 | 0.00 | 47 | 1003.4 |
| 20260504173727 | 81 | 167 | 4.3 | 6.1 | 0.00 | 0.00 | 0.00 | 48 | 1003.3 |
| 20260504173224 | 81 | 283 | 0.9 | 0.9 | 0.00 | 0.00 | 0.00 | 49 | 1003.3 |
| 20260504172721 | 81 | 282 | 2.6 | 5.2 | 0.00 | 0.00 | 0.00 | 47 | 1003.4 |
| 20260504172217 | 81 | 178 | 0.9 | 1.7 | 0.00 | 0.00 | 0.00 | 47 | 1003.4 |
| 20260504171714 | 80 | 352 | 0.9 | 0.9 | 0.00 | 0.00 | 0.00 | 45 | 1003.6 |
| 20260504171211 | 80 | 318 | 2.6 | 4.3 | 0.00 | 0.00 | 0.00 | 44 | 1003.5 |
| 20260504170708 | 81 | 324 | 4.3 | 6.1 | 0.00 | 0.00 | 0.00 | 44 | 1003.7 |
| 20260504170206 | 80 | 226 | 0.9 | 2.6 | 0.00 | 0.00 | 0.00 | 48 | 1003.7 |
| 20260504160124 | 77 | 338 | 0.0 | 0.9 | 0.00 | 0.00 | 0.00 | 52 | 1003.6 |
| 20260504151051 | 73 | 265 | 2.6 | 4.3 | 0.00 | 0.00 | 0.00 | 54 | 1003.5 |
| 20260504150549 | 74 | 148 | 1.7 | 2.6 | 0.00 | 0.00 | 0.00 | 53 | 1003.5 |
| 20260504141014 | 67 | 318 | 1.7 | 1.7 | 0.00 | 0.00 | 0.00 | 62 | 1003.9 |
| 20260504140511 | 67 | 306 | 2.6 | 2.6 | 0.00 | 0.00 | 0.00 | 63 | 1004.1 |
| 20260504130436 | 62 | 35 | 0.0 | 0.9 | 0.00 | 0.00 | 0.00 | 69 | 1003.5 |
| 20260504110323 | 58 | 272 | 0.0 | 0.0 | 0.00 | 0.00 | 0.00 | 74 | 1003.8 |
| 20260504100240 | 55 | 203 | 0.0 | 0.0 | 0.00 | 0.00 | 0.00 | 81 | 1004.9 |
| 20260504081633 | 60 | 202 | 0.0 | 0.0 | 0.00 | 0.00 | 0.00 | 69 | 1005.3 |
| 20260504081129 | 61 | 121 | 0.0 | 0.0 | 0.00 | 0.00 | 0.00 | 67 | 1005.6 |
| 20260504080626 | 61 | 233 | 0.0 | 0.0 | 0.00 | 0.00 | 0.00 | 64 | 1005.5 |
| 20260504080122 | 61 | 245 | 0.0 | 0.0 | 0.00 | 0.00 | 0.00 | 67 | 1005.5 |